Home > Time Zones > World Clock > Weather > Belgium > Spa > Past weeks

Flag for Belgium Weather past 2 weeks in Spa, Belgium

Now
63 °F

Passing clouds.


Feels Like: 63 °F
Forecast: 57 / 74 °F
Wind: 6 mph from Southeast

Location: Spa / La Sauveniere

Current Time: Sep 18, 2014 at 3:55:00 AM

Latest Report: Sep 18, 2014 at 3:00 AM


Visibility: 13 mi

Pressure: 29.85 "Hg

Humidity: 79%

Dew point: 56 °F

Location of SpaLocation

Historic Weather in Spa — Graph

°F

Spa temperature yesterday

Maximum temperature yesterday: 73 °F (at 5:00 PM)
Minimum temperature yesterday: 58 °F (at 12:00 AM)
Average temperature yesterday: 64 °F

Past Weeks' High & Low Weather Summary

 TemperatureHumidityPressure
High73 °F (Sep 17, 5:00 PM)100% (Sep 7, 1:00 AM)30.27 "Hg (Sep 7, 1:00 AM)
Low46 °F (Sep 9, 6:00 AM)51% (Sep 17, 4:00 PM)29.83 "Hg (Sep 17, 6:00 PM)
Average58 °F84%30.07 "Hg
* Reported Sep 3 12:00 Noon — Sep 18 2:00 AM, Spa, Weather by CustomWeather, © 2014

Note: Actual official high and low records may vary slightly from our data, if they occured in-between our weather recording intervals... More about our weather records

Advertising

Spa weather history for previous 24 hours

 ConditionsComfort  
Time TempWeatherWind HumidityBarometerVisibility
2:00 AM
Sep 18
63 °FClear.6 mph77%29.86 "Hg12 mi
1:00 AM63 °FClear.5 mph77%29.87 "Hg12 mi
12:00 AM64 °FOvercast.6 mph76%29.87 "Hg12 mi
11:00 PM
Sep 17
63 °FClear.6 mph79%29.87 "Hg14 mi
10:00 PM65 °FClear.6 mph76%29.87 "Hg17 mi
9:00 PM65 °FClear.5 mph73%29.86 "Hg22 mi
8:00 PM64 °FClear.2 mph76%29.86 "Hg3 mi
7:00 PM70 °FSunny.1 mph65%29.85 "Hg19 mi
6:00 PM73 °FSunny.2 mph54%29.83 "Hg22 mi
5:00 PM73 °FSunny.2 mph53%29.83 "Hg19 mi
4:00 PM73 °FSunny.N/A51%29.84 "Hg19 mi
3:00 PM72 °FSunny.1 mph52%29.85 "Hg19 mi
2:00 PM71 °FSunny.N/A59%29.87 "Hg17 mi
1:00 PM70 °FSunny.3 mph55%29.88 "Hg17 mi
12:00 PM68 °FSunny.2 mph66%29.89 "Hg14 mi
11:00 AM66 °FSunny.3 mph69%29.91 "Hg12 mi
10:00 AM65 °FSunny.3 mph73%29.90 "Hg14 mi
9:00 AM62 °FSunny.3 mph80%29.91 "Hg9 mi
8:00 AM59 °FSunny.5 mph88%29.92 "HgN/A
7:00 AM58 °FClear.5 mph91%29.93 "HgN/A
6:00 AM59 °FClear.5 mph90%29.93 "Hg6 mi
5:00 AM58 °FClear.6 mph90%29.94 "Hg6 mi
4:00 AM58 °FClear.6 mph89%29.94 "Hg7 mi
3:00 AM59 °FClear.6 mph87%29.95 "Hg7 mi
Weather by CustomWeather, © 2014

See weather overviewHow to use our weather pages